#timestamp,LO_Frequency,Hit,StdDev 
1552557615.3,286047000.4,N
1552557635.2,286047000.8,N
1552557655.9,286047001.1,N
1552557675.7,286046999.5,N
1552557695.6,286046998.7,N
1552557715.4,286046996.6,N
1552557735.2,286046999.5,N
1552557755.1,286046999.4,N
1552557756.0,286046999.4,N
1552557775.8,286046999.5,N
1552557795.7,286046997.8,N
1552557815.5,286046995.8,N
1552557835.3,286046997.0,N
1552557855.2,286046998.9,N
1552557875.0,286047000.4,N
1552557875.9,286047000.4,N
1552557895.8,286047000.5,N
1552557915.6,286047000.0,N
1552557935.4,286047000.7,N
1552557955.3,286046998.4,N
1552557975.1,286046998.7,N
1552557995.9,286046999.2,N
1552558015.7,286046998.6,N
1552558035.5,286047001.2,N
1552558055.4,286046999.3,N
1552558075.2,286046999.6,N
1552558095.0,286046999.6,N
1552558095.9,286046999.6,N
1552558115.8,286046997.5,N
1552558135.6,286046993.3,Y
1552558155.5,286046993.4,P
1552558175.3,286046995.2,N
1552558195.1,286046997.5,N
1552558215.9,286046998.0,N
1552558235.7,286046997.1,N
1552558255.5,286046999.1,N
1552558275.4,286046999.2,N
1552558295.2,286046998.5,N
1552558315.0,286046998.1,N
1552558316.0,286046998.1,N
1552558335.8,286046998.8,N
1552558355.6,286046996.9,N
1552558375.5,286046998.4,N
1552558395.3,286046998.6,N
1552558415.1,286047000.9,N
1552558435.9,286047000.6,N
1552558455.7,286046999.8,N
1552558475.6,286047000.4,N
1552558495.4,286047000.8,N
1552558515.2,286046998.8,N
1552558535.1,286047000.4,N
1552558536.0,286047000.4,N
1552558555.8,286046998.7,N
1552558575.6,286046997.3,N
1552558595.5,286046997.4,N
1552558615.3,286046996.8,N
1552558635.2,286046998.6,N
1552558655.9,286046998.6,N
1552558675.7,286047000.7,N
1552558695.7,286046998.2,N
1552558715.5,286047001.1,N
1552558735.3,286046998.4,N
1552558755.2,286047001.0,N
1552558775.0,286047000.1,N
1552558775.9,286047000.1,N
1552558795.7,286047002.3,N
1552558815.6,286047002.7,N
1552558835.3,286047000.6,N
1552558855.1,286047000.8,N
1552558875.9,286047000.0,N
1552558895.7,286047000.3,N
1552558915.5,286047000.0,N
1552558935.4,286047002.4,N
1552558955.2,286047001.5,N
1552558975.1,286047001.7,N
1552558976.0,286047001.7,N
1552558995.8,286047001.9,N
1552559015.6,286047004.0,N
1552559035.5,286047001.3,N
1552559055.3,286047002.2,N
1552559075.1,286047000.0,N
1552559095.9,286046999.7,N
1552559115.7,286047000.3,N
1552559135.6,286047002.3,N
1552559155.4,286047002.4,N
1552559175.2,286047000.8,N
1552559195.1,286047000.6,N
1552559196.0,286047000.6,N
1552559215.8,286047002.8,N
1552559235.7,286047001.9,N
1552559255.5,286047002.9,N
1552559275.3,286047003.1,N
1552559295.2,286047003.5,Y
1552559315.0,286047001.7,P
1552559315.9,286047001.7,P
1552559335.8,286047001.7,P
1552559355.6,286047001.7,Y
1552559375.4,286047000.9,P
1552559395.3,286047001.2,P
1552559415.1,286047000.1,N
1552559435.8,286046998.2,Y
1552559455.7,286046999.3,P
1552559475.5,286046999.4,N
1552559495.4,286046996.9,P
1552559515.2,286046999.0,N
1552559535.0,286046999.3,N
1552559535.9,286046999.3,N
1552559555.8,286046994.9,Y
1552559575.6,286046996.9,P
1552559595.5,286046997.3,N
1552559615.3,286046996.8,P
1552559635.1,286046997.0,Y
1552559655.9,286046999.8,P
1552559675.7,286047002.3,N
1552559695.5,286047000.5,N
1552559715.4,286046998.2,N
1552559735.2,286046998.3,N
1552559755.1,286046998.7,N
1552559756.0,286046998.7,N
1552559775.8,286047000.3,N
1552559795.6,286047001.3,N
1552559815.5,286047011.9,Y
1552559835.3,286047002.7,P
1552559855.1,286047004.3,N
1552559875.9,286047004.3,N
1552559895.7,286047001.9,N
1552559915.6,286047001.3,N
1552559935.4,286047000.3,N
1552559955.2,286047000.4,N
1552559975.1,286047000.4,N
1552559976.0,286047000.4,N
1552559995.8,286046999.9,N
1552560015.6,286047000.4,N
1552560035.5,286047001.5,N
1552560055.3,286047001.5,N
1552560075.2,286047004.4,Y
1552560095.9,286046998.9,P
1552560115.7,286046998.3,N
1552560135.6,286046999.3,N
1552560155.4,286046999.3,N
1552560175.2,286046997.0,N
1552560195.1,286046998.5,N
1552560196.0,286046998.5,N
1552560215.8,286047001.0,N
1552560235.7,286047002.7,N
1552560255.5,286047002.2,N
1552560275.3,286047002.7,N
1552560295.2,286047002.5,N
1552560315.0,286047000.6,N
1552560315.9,286047000.6,N
1552560335.8,286047000.3,N
1552560355.6,286047000.0,N
1552560375.4,286047000.1,N
1552560395.3,286047001.6,N
1552560415.1,286047002.1,N
1552560435.8,286047000.5,N
1552560455.7,286047001.0,N
1552560475.5,286046998.7,N
1552560495.8,286046998.7,N
1552560515.7,286046998.7,N
1552560535.5,286046999.5,N
1552560555.3,286046999.3,N
1552560575.2,286046997.1,N
1552560595.0,286046998.8,N
1552560595.9,286046998.8,N
1552560615.7,286046997.0,N
1552560635.6,286046997.5,N
1552560655.4,286046998.9,N
1552560675.3,286046998.1,N
1552560695.1,286047000.6,N
1552560715.8,286047002.7,N
1552560735.7,286047000.2,N
1552560755.5,286047001.1,N
1552560775.4,286046999.8,N
1552560795.2,286047002.1,N
1552560815.0,286046999.8,N
1552560815.9,286046999.8,N
1552560835.8,286047000.3,N
1552560855.6,286047002.8,N
1552560875.4,286047001.0,N
1552560895.3,286047002.8,N
1552560915.1,286047000.0,N
1552560935.9,286047000.6,N
1552560955.7,286047001.2,N
1552560975.5,286047000.9,N
1552560995.4,286047001.0,N
1552561015.2,286047001.1,N
1552561035.0,286046998.3,N
1552561035.9,286046998.3,N
1552561055.8,286047000.8,N
1552561075.6,286047002.8,N
1552561095.5,286047002.5,N
1552561115.3,286046999.9,N
1552561135.1,286047000.4,N
1552561155.9,286047000.8,N
1552561175.7,286046999.0,N
1552561195.5,286046998.8,N
